GW5732 Weather Reports


time (UTC)temp
F
wind
direction
speed
knots
gust
knots
rain 1hr
in
rain 24hr
in
rain mn
in
humidity
%
barometer
mb
20260906122853 72 274 0.9 1.7 0.00 0.00 0.00 98 1011.8
20260906122353 71 312 2.6 3.5 0.00 0.00 0.00 99 1012.0
20260906121850 72 115 4.3 7.0 0.00 0.00 0.00 98 1011.8
20260906121345 72 120 1.7 2.6 0.00 0.00 0.00 99 1012.0
20260906120841 72 104 2.6 3.5 0.00 0.00 0.00 98 1011.6
20260906120337 72 68 2.6 2.6 0.00 0.00 0.00 98 1011.7
20260906115833 72 80 2.6 2.6 0.00 0.00 0.00 98 1011.4
20260906115328 72 327 0.0 0.0 0.00 0.00 0.00 98 1011.4
20260906114827 72 343 0.9 0.9 0.00 0.00 0.00 98 1011.4
20260906114323 72 342 0.0 0.9 0.00 0.00 0.00 98 1011.1
20260906113818 72 39 0.0 0.0 0.00 0.00 0.00 98 1011.5
20260906113317 72 327 0.0 0.0 0.00 0.00 0.00 98 1011.4
20260906112812 72 328 0.0 0.0 0.00 0.00 0.00 97 1011.2
20260906112308 72 12 0.0 0.0 0.00 0.00 0.00 97 1011.1
20260906111803 73 280 0.9 1.7 0.00 0.00 0.00 97 1011.1
20260906111301 73 312 0.0 0.0 0.00 0.00 0.00 97 1011.0
20260906110757 73 308 0.0 0.9 0.00 0.00 0.00 97 1010.6
20260906110253 73 308 0.0 0.0 0.00 0.00 0.00 96 1010.7
20260906105752 73 308 0.0 0.0 0.00 0.00 0.00 96 1010.4
20260906105248 73 250 0.0 0.9 0.00 0.00 0.00 96 1010.5
20260906104743 73 222 0.0 0.0 0.00 0.00 0.00 96 1010.7
20260906104241 73 279 1.7 1.7 0.00 0.00 0.00 96 1010.4
20260906103740 74 270 0.9 0.9 0.00 0.00 0.00 95 1010.5
20260906103234 74 269 0.9 1.7 0.00 0.00 0.00 95 1010.6
20260906102730 74 266 0.0 0.9 0.00 0.00 0.00 95 1010.4
20260906102229 74 266 0.0 0.0 0.00 0.00 0.00 95 1010.5
20260906101724 74 275 0.9 0.9 0.00 0.00 0.00 95 1010.3
20260906101219 74 275 0.0 0.0 0.00 0.00 0.00 95 1010.1
20260906100714 74 296 0.0 0.0 0.00 0.00 0.00 94 1010.4
20260906100214 75 282 1.7 1.7 0.00 0.00 0.00 94 1010.2
20260906095714 75 286 0.9 0.9 0.00 0.00 0.00 94 1010.0
20260906095210 75 278 1.7 2.6 0.00 0.00 0.00 94 1010.1
20260906094708 75 279 1.7 1.7 0.00 0.00 0.00 94 1010.0
20260906094204 75 279 0.0 0.9 0.00 0.00 0.00 94 1009.6
20260906093700 75 288 0.9 0.9 0.00 0.00 0.00 93 1009.7
20260906093156 75 297 0.0 0.9 0.00 0.00 0.00 93 1009.5
20260906092651 75 267 0.9 0.9 0.00 0.00 0.00 93 1009.5
20260906092150 75 282 0.9 2.6 0.00 0.00 0.00 93 1009.5
20260906091647 75 276 0.0 0.9 0.00 0.00 0.00 93 1009.5
20260906091143 76 308 0.0 0.0 0.00 0.00 0.00 92 1009.9
20260906090638 76 357 1.7 2.6 0.00 0.00 0.00 92 1009.6
20260906090132 76 240 0.0 0.0 0.00 0.00 0.00 92 1009.6
20260906085631 76 192 1.7 1.7 0.00 0.00 0.00 92 1009.8
20260906085126 76 104 1.7 2.6 0.00 0.00 0.00 91 1009.6
20260906084626 76 331 0.9 0.9 0.00 0.00 0.00 91 1009.8
20260906084125 77 269 0.9 1.7 0.00 0.00 0.00 91 1009.5
20260906083621 77 259 0.9 1.7 0.00 0.00 0.00 91 1009.7
20260906083121 77 244 0.0 0.9 0.00 0.00 0.00 91 1009.6
20260906082616 77 253 0.9 0.9 0.00 0.00 0.00 91 1009.4
20260906082112 77 274 1.7 1.7 0.00 0.00 0.00 92 1009.4
20260906081608 77 249 0.0 0.0 0.00 0.00 0.00 92 1009.6
20260906081102 77 262 1.7 1.7 0.00 0.00 0.00 92 1009.5
20260906080559 77 108 0.0 0.0 0.00 0.00 0.00 92 1009.2
20260906080055 77 109 0.0 0.0 0.00 0.00 0.00 92 1009.3
20260906075555 77 109 0.0 0.0 0.00 0.00 0.00 92 1009.4
20260906075049 78 109 0.0 0.0 0.00 0.00 0.00 92 1009.2
20260906074544 78 109 0.0 0.0 0.00 0.00 0.00 91 1009.2
20260906074043 78 109 0.0 0.0 0.00 0.00 0.00 91 1009.3
20260906073538 78 108 0.0 0.0 0.00 0.00 0.00 91 1009.4
20260906073034 78 247 0.0 0.0 0.00 0.00 0.00 91 1009.4
20260906072529 79 240 0.0 0.9 0.00 0.00 0.00 90 1009.7
20260906072025 79 78 0.0 0.0 0.00 0.00 0.00 90 1009.7
20260906071521 79 320 0.9 0.9 0.00 0.00 0.00 90 1009.7
20260906071016 79 81 0.0 0.9 0.00 0.00 0.00 91 1009.7
20260906070512 79 251 0.0 0.0 0.00 0.00 0.00 90 1009.8
20260906070008 79 320 0.9 0.9 0.00 0.00 0.00 90 1009.4
20260906065507 80 170 1.7 1.7 0.00 0.00 0.00 90 1009.7
20260906065003 80 170 0.0 0.0 0.00 0.00 0.00 90 1009.9
20260906064459 80 191 1.7 1.7 0.00 0.00 0.00 90 1009.7
20260906063953 80 308 0.9 0.9 0.00 0.00 0.00 89 1009.8
20260906063449 80 106 2.6 2.6 0.00 0.00 0.00 89 1009.9
20260906062949 80 109 1.7 1.7 0.00 0.00 0.00 89 1009.8
20260906062444 80 114 1.7 2.6 0.00 0.00 0.00 89 1010.0
20260906061939 81 76 2.6 2.6 0.00 0.00 0.00 89 1010.0
20260906061435 81 102 1.7 2.6 0.00 0.00 0.00 89 1010.1
20260906060929 81 42 2.6 2.6 0.00 0.00 0.00 88 1009.9
20260906060427 81 162 2.6 2.6 0.00 0.00 0.00 88 1010.1
20260906055923 81 11 2.6 2.6 0.00 0.00 0.00 88 1010.0
20260906055418 81 91 2.6 3.5 0.00 0.00 0.00 88 1010.1
20260906054913 82 101 1.7 5.2 0.00 0.00 0.00 87 1009.9
20260906054408 82 34 2.6 3.5 0.00 0.00 0.00 86 1010.2
20260906053904 82 81 2.6 2.6 0.00 0.00 0.00 86 1009.9
20260906053400 82 80 1.7 1.7 0.00 0.00 0.00 86 1009.9
20260906052856 82 78 4.3 5.2 0.00 0.00 0.00 85 1009.9
20260906052352 82 108 0.9 1.7 0.00 0.00 0.00 85 1009.8
20260906051849 82 73 2.6 5.2 0.00 0.00 0.00 84 1009.9
20260906051348 82 19 2.6 3.5 0.00 0.00 0.00 84 1009.9
20260906050844 82 285 0.9 0.9 0.00 0.00 0.00 84 1010.0
20260906050338 82 290 0.0 0.0 0.00 0.00 0.00 83 1009.6
20260906045838 82 235 0.0 0.0 0.00 0.00 0.00 83 1009.7
20260906045332 82 113 1.7 2.6 0.00 0.00 0.00 83 1009.8
20260906044829 82 9 0.0 0.0 0.00 0.00 0.00 84 1009.4
20260906044328 82 9 0.0 0.0 0.00 0.00 0.00 83 1009.7
20260906043826 82 9 0.9 1.7 0.00 0.00 0.00 82 1009.6
20260906043320 82 9 1.7 1.7 0.00 0.00 0.00 83 1009.6
20260906042820 82 321 0.0 0.0 0.00 0.00 0.00 84 1009.4
20260906042319 82 321 0.0 0.0 0.00 0.00 0.00 83 1009.5
20260906041815 82 321 0.0 0.0 0.00 0.00 0.00 83 1009.3
20260906041310 82 321 0.0 0.0 0.00 0.00 0.00 83 1009.3
20260906040805 82 321 0.0 0.0 0.00 0.00 0.00 83 1009.2
20260906040301 82 321 0.0 0.0 0.00 0.00 0.00 83 1009.1
20260906035755 81 321 0.0 0.0 0.00 0.00 0.00 83 1009.3
20260906035251 81 321 0.0 0.0 0.00 0.00 0.00 82 1009.3
20260906034751 81 321 0.0 0.0 0.00 0.00 0.00 83 1009.3
20260906034246 80 321 0.0 0.0 0.00 0.00 0.00 84 1009.2
20260906033742 80 321 0.0 0.0 0.00 0.00 0.00 84 1009.2
20260906033241 81 321 0.0 0.0 0.00 0.00 0.00 83 1009.1
20260906032738 81 321 0.0 0.0 0.00 0.00 0.00 82 1009.2
20260906032238 82 321 0.0 0.0 0.00 0.00 0.00 81 1009.0
20260906031733 82 321 0.9 0.9 0.00 0.00 0.00 80 1008.8
20260906031229 82 321 0.0 0.0 0.00 0.00 0.00 81 1008.9
20260906030729 82 321 0.0 0.0 0.00 0.00 0.00 81 1008.7
20260906030224 82 321 0.0 0.0 0.00 0.00 0.00 81 1009.0
20260906025723 82 321 0.0 0.0 0.00 0.00 0.00 80 1008.9
20260906025218 82 321 0.0 0.0 0.00 0.00 0.00 80 1009.0
20260906024717 82 321 0.0 0.0 0.00 0.00 0.00 80 1008.9
20260906024216 82 321 0.0 0.0 0.00 0.00 0.00 80 1008.8
20260906023712 83 321 0.0 0.0 0.00 0.00 0.00 79 1008.8
20260906023213 83 321 0.0 0.0 0.00 0.00 0.00 80 1008.9
20260906022708 83 321 0.0 0.0 0.00 0.00 0.00 79 1008.7
20260906022203 83 321 0.0 0.0 0.00 0.00 0.00 79 1008.5
20260906021659 83 321 0.0 0.0 0.00 0.00 0.00 79 1008.4
20260906021158 83 321 0.0 0.0 0.00 0.00 0.00 78 1008.4
20260906020653 83 321 0.0 0.0 0.00 0.00 0.00 78 1008.4
20260906020148 83 321 0.0 0.0 0.00 0.00 0.00 78 1008.2
20260906015648 83 321 0.0 0.0 0.00 0.00 0.00 78 1008.2
20260906015147 83 320 0.0 0.0 0.00 0.00 0.00 78 1008.2
20260906014646 83 321 0.0 0.0 0.00 0.00 0.00 78 1008.2
20260906014143 83 321 0.0 0.0 0.00 0.00 0.00 78 1008.0
20260906013638 85 321 0.9 0.9 0.00 0.00 0.00 77 1008.3
20260906013134 86 321 0.0 0.0 0.00 0.00 0.00 70 1008.1
20260906012633 87 321 0.0 0.0 0.00 0.00 0.00 69 1007.9
20260906012128 87 321 0.0 0.0 0.00 0.00 0.00 69 1007.5
20260906011624 88 321 0.0 0.0 0.00 0.00 0.00 68 1007.7
20260906011124 88 321 0.0 0.0 0.00 0.00 0.00 66 1007.5
20260906010620 88 321 0.0 0.0 0.00 0.00 0.00 65 1007.7
20260906010116 88 321 0.0 0.0 0.00 0.00 0.00 65 1007.6
20260906005615 89 321 0.0 0.0 0.00 0.00 0.00 65 1007.4
20260906005115 89 321 0.0 0.0 0.00 0.00 0.00 64 1007.3
20260906004614 89 321 0.0 0.0 0.00 0.00 0.00 63 1007.4
20260906004109 90 321 0.0 0.0 0.00 0.00 0.00 62 1007.4
20260906003604 90 321 0.0 0.0 0.00 0.00 0.00 61 1007.2
20260906003101 91 321 0.0 0.0 0.00 0.00 0.00 60 1007.2
20260906002600 91 322 0.0 0.0 0.00 0.00 0.00 60 1007.1
20260906002055 91 322 0.0 0.0 0.00 0.00 0.00 59 1007.2
20260906001550 92 322 0.0 0.0 0.00 0.00 0.00 58 1007.3
20260906001045 92 323 0.0 0.0 0.00 0.00 0.00 58 1007.5
20260906000541 93 321 0.0 0.0 0.00 0.00 0.00 58 1007.6
20260906000036 93 308 0.0 0.0 0.00 0.00 0.00 57 1007.7
20260905235536 93 308 0.0 0.0 0.00 0.00 0.00 56 1007.4
20260905235031 94 308 0.0 0.9 0.00 0.00 0.00 56 1007.5
20260905234526 94 309 0.0 0.0 0.00 0.00 0.00 55 1007.3
20260905234026 95 308 0.0 0.0 0.00 0.00 0.00 55 1007.4
20260905233521 95 308 1.7 2.6 0.00 0.00 0.00 54 1007.4
20260905233021 95 316 0.0 0.0 0.00 0.00 0.00 53 1007.5
20260905232516 96 291 0.0 0.0 0.00 0.00 0.00 52 1007.5
20260905232012 96 317 0.9 1.7 0.00 0.00 0.00 51 1007.5
20260905231507 96 319 0.0 0.0 0.00 0.00 0.00 51 1007.3
20260905231004 96 316 3.5 5.2 0.00 0.00 0.00 50 1007.4
20260905230502 97 321 3.5 3.5 0.00 0.00 0.00 49 1007.3
20260905230000 97 301 1.7 1.7 0.00 0.00 0.00 49 1007.3
20260905225456 97 304 2.6 2.6 0.00 0.00 0.00 48 1007.4
20260905224951 98 337 4.3 5.2 0.00 0.00 0.00 47 1007.3
20260905224446 97 329 4.3 5.2 0.00 0.00 0.00 47 1007.2
20260905223945 97 327 3.5 6.1 0.00 0.00 0.00 47 1007.2
20260905223443 98 319 3.5 5.2 0.00 0.00 0.00 46 1007.0
20260905222938 98 337 4.3 6.1 0.00 0.00 0.00 46 1007.1
20260905222438 99 276 1.7 2.6 0.00 0.00 0.00 46 1007.2
20260905221933 99 326 3.5 3.5 0.00 0.00 0.00 45 1006.9
20260905221430 100 305 4.3 5.2 0.00 0.00 0.00 44 1006.9
20260905220926 100 346 4.3 5.2 0.00 0.00 0.00 44 1006.9
20260905220422 100 323 4.3 6.1 0.00 0.00 0.00 43 1007.0
20260905215920 100 314 1.7 5.2 0.00 0.00 0.00 43 1007.1
20260905215416 100 326 6.1 7.0 0.00 0.00 0.00 44 1006.9
20260905214913 100 310 4.3 6.1 0.00 0.00 0.00 43 1007.2
20260905214408 101 354 4.3 5.2 0.00 0.00 0.00 42 1007.1
20260905213908 101 302 4.3 7.0 0.00 0.00 0.00 41 1007.0
20260905213404 101 291 5.2 7.8 0.00 0.00 0.00 41 1007.1
20260905212859 101 274 2.6 3.5 0.00 0.00 0.00 43 1007.0
20260905212354 101 282 4.3 5.2 0.00 0.00 0.00 43 1007.1
20260905211853 101 351 7.8 11.3 0.00 0.00 0.00 42 1007.2
20260905211349 102 280 5.2 6.1 0.00 0.00 0.00 42 1007.2
20260905210845 102 256 1.7 2.6 0.00 0.00 0.00 41 1007.3
20260905210345 102 249 1.7 1.7 0.00 0.00 0.00 41 1007.2
20260905205844 101 273 4.3 5.2 0.00 0.00 0.00 43 1007.4
20260905205339 101 260 0.9 1.7 0.00 0.00 0.00 42 1007.4
20260905204838 102 231 3.5 3.5 0.00 0.00 0.00 41 1007.5
20260905204335 102 297 5.2 6.1 0.00 0.00 0.00 41 1007.6
20260905203833 102 342 2.6 3.5 0.00 0.00 0.00 41 1007.5
20260905203329 103 350 2.6 3.5 0.00 0.00 0.00 40 1007.8
20260905202825 102 311 2.6 3.5 0.00 0.00 0.00 40 1007.9
20260905202319 102 290 2.6 2.6 0.00 0.00 0.00 42 1007.7
20260905201815 102 298 3.5 6.1 0.00 0.00 0.00 42 1007.8
20260905201310 100 252 1.7 1.7 0.00 0.00 0.00 42 1007.8
20260905200804 101 259 2.6 2.6 0.00 0.00 0.00 43 1007.8
20260905200301 101 295 4.3 5.2 0.00 0.00 0.00 43 1007.9
20260905195758 101 347 4.3 6.1 0.00 0.00 0.00 43 1008.0
20260905195253 102 237 3.5 5.2 0.00 0.00 0.00 40 1008.1
20260905194749 101 276 1.7 1.7 0.00 0.00 0.00 44 1007.9
20260905194249 101 349 3.5 5.2 0.00 0.00 0.00 42 1008.2
20260905193748 101 264 0.9 1.7 0.00 0.00 0.00 43 1008.2
20260905193243 101 284 4.3 5.2 0.00 0.00 0.00 43 1008.3
20260905192738 101 275 1.7 2.6 0.00 0.00 0.00 43 1008.5
20260905192235 101 267 2.6 3.5 0.00 0.00 0.00 44 1008.4
20260905191734 101 274 2.6 2.6 0.00 0.00 0.00 44 1008.4
20260905191232 100 264 5.2 7.0 0.00 0.00 0.00 47 1008.6
20260905190731 100 267 1.7 2.6 0.00 0.00 0.00 46 1008.6
20260905190230 99 264 0.9 0.9 0.00 0.00 0.00 48 1009.0
20260905185729 100 345 5.2 6.1 0.00 0.00 0.00 44 1009.0
20260905185224 101 281 3.5 6.1 0.00 0.00 0.00 47 1008.8
20260905184719 99 269 3.5 5.2 0.00 0.00 0.00 46 1008.8
20260905184218 99 351 2.6 3.5 0.00 0.00 0.00 47 1008.8
20260905183717 98 325 0.9 0.9 0.00 0.00 0.00 49 1009.2
20260905183213 99 295 4.3 6.1 0.00 0.00 0.00 48 1009.2
20260905182713 99 328 3.5 3.5 0.00 0.00 0.00 46 1009.2
20260905182212 99 317 0.9 0.9 0.00 0.00 0.00 49 1009.0
20260905181708 99 334 2.6 5.2 0.00 0.00 0.00 48 1009.2
20260905181206 99 257 1.7 1.7 0.00 0.00 0.00 49 1009.2
20260905180701 98 296 2.6 5.2 0.00 0.00 0.00 50 1009.6
20260905180157 98 249 3.5 5.2 0.00 0.00 0.00 50 1009.4
20260905175655 99 270 5.2 7.0 0.00 0.00 0.00 49 1009.6
20260905175151 98 260 2.6 2.6 0.00 0.00 0.00 52 1009.3
20260905174647 98 243 2.6 2.6 0.00 0.00 0.00 52 1009.5
20260905174142 97 249 5.2 6.1 0.00 0.00 0.00 50 1009.4
20260905173638 98 241 2.6 3.5 0.00 0.00 0.00 52 1009.5
20260905173134 98 286 3.5 6.1 0.00 0.00 0.00 52 1009.5
20260905172632 97 249 0.0 0.9 0.00 0.00 0.00 51 1009.6
20260905172127 97 292 4.3 5.2 0.00 0.00 0.00 51 1009.8
20260905171624 97 307 3.5 5.2 0.00 0.00 0.00 51 1009.7
20260905171119 97 274 0.9 1.7 0.00 0.00 0.00 53 1009.7
20260905170616 97 316 3.5 5.2 0.00 0.00 0.00 52 1009.8
20260905170112 96 259 2.6 3.5 0.00 0.00 0.00 54 1010.0
20260905165611 95 248 1.7 2.6 0.00 0.00 0.00 57 1010.1
20260905165107 95 253 3.5 3.5 0.00 0.00 0.00 58 1009.8
20260905164602 95 248 1.7 2.6 0.00 0.00 0.00 55 1010.0
20260905164101 95 252 0.9 1.7 0.00 0.00 0.00 56 1010.2
20260905163558 95 243 2.6 3.5 0.00 0.00 0.00 57 1010.4
20260905163054 94 298 2.6 3.5 0.00 0.00 0.00 56 1010.4
20260905162550 95 245 1.7 2.6 0.00 0.00 0.00 57 1010.2
20260905162049 95 336 5.2 6.1 0.00 0.00 0.00 56 1010.6
20260905161549 94 242 0.0 0.0 0.00 0.00 0.00 57 1010.6
20260905161047 95 234 3.5 3.5 0.00 0.00 0.00 58 1010.4
20260905160545 95 298 3.5 5.2 0.00 0.00 0.00 56 1010.3
20260905160045 94 287 1.7 2.6 0.00 0.00 0.00 57 1010.4
20260905155540 93 285 0.9 1.7 0.00 0.00 0.00 59 1010.6
20260905155038 93 274 4.3 5.2 0.00 0.00 0.00 58 1010.6
20260905154534 93 330 2.6 3.5 0.00 0.00 0.00 57 1010.6
20260905154029 93 273 1.7 2.6 0.00 0.00 0.00 60 1010.6
20260905153525 93 269 0.9 1.7 0.00 0.00 0.00 58 1010.7
20260905153025 93 306 3.5 3.5 0.00 0.00 0.00 60 1010.8
20260905152525 92 267 0.9 0.9 0.00 0.00 0.00 62 1010.8
20260905152020 92 222 1.7 2.6 0.00 0.00 0.00 63 1010.8
20260905151515 92 301 4.3 6.1 0.00 0.00 0.00 62 1010.6
20260905151011 91 264 2.6 3.5 0.00 0.00 0.00 64 1010.6
20260905150505 91 250 1.7 2.6 0.00 0.00 0.00 66 1010.5
20260905150003 91 289 5.2 7.0 0.00 0.00 0.00 64 1010.5
20260905145457 90 261 0.9 1.7 0.00 0.00 0.00 66 1010.6
20260905144956 90 271 2.6 2.6 0.00 0.00 0.00 65 1010.5
20260905144452 90 236 1.7 2.6 0.00 0.00 0.00 65 1010.5
20260905143950 89 278 2.6 2.6 0.00 0.00 0.00 66 1010.7
20260905143449 89 203 1.7 2.6 0.00 0.00 0.00 68 1010.8
20260905142944 88 238 1.7 1.7 0.00 0.00 0.00 69 1010.7
20260905142443 88 253 1.7 1.7 0.00 0.00 0.00 71 1010.8
20260905141939 87 246 3.5 3.5 0.00 0.00 0.00 72 1010.6
20260905141433 87 244 1.7 1.7 0.00 0.00 0.00 72 1010.5
20260905140930 87 216 1.7 2.6 0.00 0.00 0.00 73 1010.8
20260905140425 86 213 1.7 1.7 0.00 0.00 0.00 74 1010.8
20260905135924 85 213 0.9 0.9 0.00 0.00 0.00 78 1010.6
20260905135420 85 212 2.6 3.5 0.00 0.00 0.00 77 1011.0
20260905134915 84 213 2.6 2.6 0.00 0.00 0.00 78 1011.0
20260905134414 84 212 2.6 2.6 0.00 0.00 0.00 78 1010.7
20260905133908 83 212 3.5 3.5 0.00 0.00 0.00 81 1010.8
20260905133403 83 211 2.6 2.6 0.00 0.00 0.00 80 1010.7
20260905132903 83 211 2.6 2.6 0.00 0.00 0.00 81 1010.7
20260905132358 83 211 0.9 1.7 0.00 0.00 0.00 81 1010.7
20260905131858 83 210 1.7 2.6 0.00 0.00 0.00 81 1011.0
20260905131354 83 221 1.7 2.6 0.00 0.00 0.00 81 1010.7
20260905130848 83 222 2.6 3.5 0.00 0.00 0.00 80 1010.6
20260905130347 82 261 1.7 1.7 0.00 0.00 0.00 81 1010.7
20260905125843 82 261 0.9 1.7 0.00 0.00 0.00 82 1010.6
20260905125337 81 261 0.9 1.7 0.00 0.00 0.00 83 1010.7
20260905124834 81 261 1.7 1.7 0.00 0.00 0.00 83 1010.5
20260905124330 80 261 0.9 0.9 0.00 0.00 0.00 83 1010.7
20260905123830 80 261 0.0 0.0 0.00 0.00 0.00 84 1010.6
20260905123327 81 261 0.0 0.9 0.00 0.00 0.00 84 1010.6